Погода в Латакии

Сирия     35°31′15″N   35°47′28″E
темп.,
°C
ветер,
м/с
пор.,
м/с
влажн.,
%
обл.,
%
осадки,
мм/ч
давл.,
гПа
погр.,
м
11 мая, вт
вт1100:00+20в22600 0.0 100960
03:00+20вюв22670 0.0 100894
06:00+20юв33690 0.0 1009138
09:00+22ю33590 0.0 1010310
12:00+22ююз33560 0.0 1010295
15:00+22юз32550 0.0 1010267
18:00+23ююз22540 0.0 1008148
21:00+22ю11620 0.0 100911
12 мая, ср
ср1200:00+21юв22570 0.0 100962
03:00+20юв23576 0.0 100993
06:00+20вюв2251100 0.0 1010101
09:00+22ю22485 0.0 1010210
12:00+22юз33540 0.0 1011284
15:00+22юз33620 0.0 1010318
18:00+22юз32660 0.0 1010308
21:00+21ю22760 0.0 101071
13 мая, чт
чт1300:00+20юв22760 0.0 101198
03:00+20юв22750 0.0 1010159
06:00+20юв23740 0.0 1011182
09:00+21ю3271100 0.0 1012363
12:00+21юз337485 0.0 1013422
15:00+22зюз43710 0.0 1012416
18:00+22ююз32670 0.0 1012378
21:00+21ю22700 0.0 1013259
14 мая, пт
пт1400:00+21ю12705 0.0 1013304
03:00+20юв33780 0.0 1012199
06:00+19вюв22790 0.0 1013137
09:00+20ююз11720 0.0 1014223
12:00+21зюз33750 0.0 1015306
15:00+22з32720 0.0 1014315
18:00+22зюз22700 0.0 1013291
21:00+21ю11740 0.0 1014166
15 мая, сб
сб1500:00+20юв11770 0.0 1013127
03:00+20вюв11790 0.0 1013107
06:00+19юв22793 0.0 1013162
09:00+21ююз227348 0.0 1013377
12:00+21юз337310 0.0 1012355
15:00+22юз44710 0.0 1012392
18:00+22ю44700 0.0 1010437
21:00+21ю33760 0.0 1010342